Notices

What's New in latest Release from April 7th, 2021:

- Updated Glossary, including Speed of Maximum Gust, and Total Hourly Precipitation

- Updated national and regional climate services offices contacts and prices information

- Addition of station inventory lists for 1981-2010, 1971-2000, and 1961-1990 Normals.

If you haven't already, please take our survey and provide feedback about our website: https://eccc.sondage-survey.ca/f/LanguageSelection.aspx?s=442ca660-fcf1-47c0-95a9-59707d6fd709

Hourly Data Report for November 05, 2017

VICTORIA UNIVERSITY CS
BRITISH COLUMBIA

48°27'25.200" N
123°18'16.600" W
60.10 m
1018598
71783
WYJ

Download Data

Hourly Data (November 2017)
Hourly Data Report for November 5, 2017
TIME
LST
Temp Definition
°C
Dew Point Definition
°C
Rel Hum Definition
%
Precip. Amount Definition
mm

Wind Dir Definition
10's deg

Wind Spd Definition
km/h
Visibility Definition
km
Stn Press Definition
kPa
Hmdx Definition


Wind Chill Definition


Weather Definition


00:00 1.1 -0.3 90 1.5 6 6   100.20     LegendNANA
01:00 2.5 -2.8 68 0.2 3 13   100.20     LegendNANA
02:00 3.0 -4.5 58 0.0 3 16   100.19     LegendNANA
03:00 3.1 -5.1 55 0.0 2 15   100.20     LegendNANA
04:00 3.0 -5.6 53 0.0 3 15   100.23     LegendNANA
05:00 3.0 -6.3 50 0.0 3 13   100.26     LegendNANA
06:00 3.0 -6.2 51 0.0 3 12   100.29     LegendNANA
07:00 3.1 -7.4 46 0.0 2 15   100.36     LegendNANA
08:00 3.2 -7.2 47 0.0 3 15   100.43     LegendNANA
09:00 3.3 -6.5 49 0.0 3 15   100.50     LegendNANA
10:00 4.1 -6.1 47 0.0 3 12   100.55     LegendNANA
11:00 4.9 -5.9 45 0.0 2 12   100.58     LegendNANA
12:00 5.0 -6.6 43 0.0 2 12   100.60     LegendNANA
13:00 4.9 -6.7 43 0.0 3 11   100.62     LegendNANA
14:00 4.9 -6.6 43 0.0 2 9   100.67     LegendNANA
15:00 4.7 -5.9 46 0.0 2 5   100.74     LegendNANA
16:00 4.9 -6.0 45 0.0 2 5   100.80     LegendNANA
17:00 4.4 -5.5 48 0.0 35 4   100.85     LegendNANA
18:00 3.6 -4.2 57 0.0 35 3   100.92     LegendNANA
19:00 3.3 -6.5 49 0.0 1 3   100.99     LegendNANA
20:00 3.3 -6.6 48 0.0 2 5   101.07     LegendNANA
21:00 3.1 -7.1 47 0.0 2 7   101.15     LegendNANA
22:00 3.3 -8.3 42 0.0 2 12   101.22     LegendNANA
23:00 3.4 -8.9 40 0.0 2 13   101.25     LegendNANA

Notes on Data Quality.

Legend

  • E = Estimated
  • M = Missing
  • NA = Not Available*
  • [empty] = Indicates an unobserved value
Date modified: